Meteo pe oră la Dabrowice

Astăzi, 11 Aprilie, Duminică

Timp Temperatura Precipitaţii Vânt Presiune Umiditate
00:00 +8°C° 0 mm 1 m/s 751 mmHg 91%
01:00 +8°C° 0 mm 1 m/s 751 mmHg 91%
02:00 +7°C° 0 mm 2 m/s 751 mmHg 91%
03:00 +7°C° 0 mm 2 m/s 751 mmHg 92%
04:00 +7°C° 0 mm 3 m/s 751 mmHg 92%
05:00 +7°C° 0 mm 3 m/s 751 mmHg 88%
06:00 +8°C° 0 mm 3 m/s 751 mmHg 85%
07:00 +9°C° 0 mm 3 m/s 751 mmHg 81%
08:00 +11°C° 0 mm 4 m/s 750 mmHg 73%
09:00 +13°C° 0 mm 4 m/s 750 mmHg 64%
10:00 +15°C° 0 mm 5 m/s 750 mmHg 55%
11:00 +15°C° 0 mm 6 m/s 750 mmHg 52%
12:00 +16°C° 0 mm 6 m/s 750 mmHg 49%
13:00 +17°C° 0 mm 7 m/s 750 mmHg 45%
14:00 +16°C° 0 mm 7 m/s 749 mmHg 48%
15:00 +16°C° 0 mm 6 m/s 749 mmHg 50%
16:00 +15°C° 0 mm 6 m/s 749 mmHg 53%
17:00 +14°C° 0 mm 6 m/s 749 mmHg 55%
18:00 +13°C° 0 mm 5 m/s 750 mmHg 57%
19:00 +12°C° 0 mm 4 m/s 750 mmHg 59%
20:00 +12°C° 0 mm 5 m/s 750 mmHg 63%
21:00 +10°C° 0 mm 5 m/s 750 mmHg 66%
22:00 +10°C° 0 mm 6 m/s 750 mmHg 69%
23:00 +10°C° 0 mm 5 m/s 750 mmHg 73%

Mâine, 12 Aprilie, Luni

Timp Temperatura Precipitaţii Vânt Presiune Umiditate
00:00 +10°C° 0 mm 5 m/s 750 mmHg 76%
01:00 +9°C° 0 mm 5 m/s 749 mmHg 80%
02:00 +10°C° 0 mm 4 m/s 749 mmHg 82%
03:00 +8°C° 0 mm 4 m/s 749 mmHg 84%
04:00 +9°C° 0 mm 3 m/s 749 mmHg 86%
05:00 +9°C° 0 mm 3 m/s 749 mmHg 84%
06:00 +10°C° 0 mm 3 m/s 749 mmHg 81%
07:00 +11°C° 0 mm 3 m/s 749 mmHg 78%
08:00 +12°C° 0 mm 3 m/s 749 mmHg 72%
09:00 +13°C° 0 mm 3 m/s 749 mmHg 67%
10:00 +14°C° 0 mm 4 m/s 750 mmHg 61%
11:00 +14°C° 0 mm 3 m/s 750 mmHg 60%
12:00 +16°C° 0 mm 3 m/s 750 mmHg 59%
13:00 +16°C° 0 mm 2 m/s 750 mmHg 58%
14:00 +13°C° 0.1 mm 4 m/s 750 mmHg 66%
15:00 +10°C° 0.1 mm 5 m/s 750 mmHg 74%
16:00 +8°C° 0.1 mm 7 m/s 751 mmHg 82%
17:00 +6°C° 0.1 mm 7 m/s 751 mmHg 82%
18:00 +5°C° 0.1 mm 7 m/s 752 mmHg 82%
19:00 +3°C° 0.1 mm 6 m/s 753 mmHg 82%
20:00 +3°C° 0.1 mm 6 m/s 753 mmHg 85%
21:00 +2°C° 0.1 mm 6 m/s 754 mmHg 87%
22:00 +1°C° 0.1 mm 6 m/s 754 mmHg 90%
23:00 +1°C° 0.1 mm 6 m/s 754 mmHg 90%

Poimâine, 13 Aprilie, Marţi

Timp Temperatura Precipitaţii Vânt Presiune Umiditate
00:00 +1°C° 0.1 mm 6 m/s 754 mmHg 91%
01:00 0°C° 0.1 mm 5 m/s 754 mmHg 92%
02:00 +1°C° 0.1 mm 5 m/s 755 mmHg 90%
03:00 +1°C° 0.1 mm 4 m/s 755 mmHg 89%
04:00 +1°C° 0.1 mm 4 m/s 755 mmHg 87%
05:00 +1°C° 0.1 mm 4 m/s 755 mmHg 84%
06:00 +1°C° 0.1 mm 4 m/s 755 mmHg 81%
07:00 +1°C° 0.1 mm 4 m/s 755 mmHg 78%
08:00 +1°C° 0.1 mm 4 m/s 756 mmHg 75%
09:00 +3°C° 0.1 mm 4 m/s 756 mmHg 73%
10:00 +3°C° 0.1 mm 4 m/s 756 mmHg 70%
11:00 +3°C° 0 mm 5 m/s 756 mmHg 65%
12:00 +3°C° 0 mm 5 m/s 756 mmHg 60%
13:00 +5°C° 0 mm 5 m/s 756 mmHg 54%
14:00 +5°C° 0 mm 5 m/s 756 mmHg 53%
15:00 +6°C° 0 mm 4 m/s 756 mmHg 52%
16:00 +6°C° 0 mm 4 m/s 755 mmHg 50%
17:00 +5°C° 0 mm 3 m/s 755 mmHg 54%
18:00 +5°C° 0 mm 2 m/s 756 mmHg 58%
19:00 +4°C° 0 mm 2 m/s 756 mmHg 62%
20:00 +4°C° 0 mm 2 m/s 756 mmHg 64%
21:00 +4°C° 0 mm 2 m/s 756 mmHg 65%
22:00 +2°C° 0 mm 3 m/s 756 mmHg 67%
23:00 +2°C° 0 mm 3 m/s 756 mmHg 67%

14 Aprilie, Miercuri

Timp Temperatura Precipitaţii Vânt Presiune Umiditate
00:00 +2°C° 0 mm 3 m/s 756 mmHg 67%
01:00 +1°C° 0 mm 4 m/s 755 mmHg 68%
02:00 0°C° 0 mm 4 m/s 755 mmHg 72%
03:00 0°C° 0 mm 4 m/s 755 mmHg 77%
04:00 0°C° 0 mm 4 m/s 755 mmHg 82%
05:00 0°C° 0 mm 5 m/s 755 mmHg 79%
06:00 0°C° 0 mm 5 m/s 755 mmHg 77%
07:00 +1°C° 0 mm 5 m/s 755 mmHg 75%
08:00 +1°C° 0 mm 6 m/s 755 mmHg 72%
09:00 +2°C° 0 mm 6 m/s 755 mmHg 69%
10:00 +2°C° 0 mm 7 m/s 755 mmHg 67%
11:00 +3°C° 0 mm 7 m/s 755 mmHg 64%
12:00 +4°C° 0 mm 8 m/s 754 mmHg 61%
13:00 +4°C° 0 mm 8 m/s 754 mmHg 59%
14:00 +2°C° 0.4 mm 8 m/s 754 mmHg 68%
15:00 +2°C° 0.4 mm 7 m/s 754 mmHg 77%
16:00 0°C° 0.4 mm 7 m/s 754 mmHg 87%
17:00 0°C° 0.8 mm 7 m/s 754 mmHg 90%
18:00 -1°C° 0.8 mm 8 m/s 754 mmHg 93%
19:00 -1°C° 0.8 mm 8 m/s 753 mmHg 95%
20:00 -1°C° 0.8 mm 8 m/s 753 mmHg 96%
21:00 -2°C° 0.8 mm 8 m/s 753 mmHg 96%
22:00 -2°C° 0.8 mm 8 m/s 753 mmHg 96%
23:00 -2°C° 1.2 mm 8 m/s 753 mmHg 96%

15 Aprilie, Joi

Timp Temperatura Precipitaţii Vânt Presiune Umiditate
00:00 -2°C° 1.2 mm 8 m/s 752 mmHg 97%
01:00 -4°C° 1.2 mm 8 m/s 752 mmHg 97%
02:00 -4°C° 1.2 mm 8 m/s 752 mmHg 98%
03:00 -3°C° 1.2 mm 7 m/s 752 mmHg 98%
04:00 -3°C° 1.2 mm 7 m/s 752 mmHg 98%
05:00 -3°C° 0.8 mm 7 m/s 752 mmHg 98%
06:00 -2°C° 0.8 mm 7 m/s 752 mmHg 98%
07:00 -2°C° 0.8 mm 7 m/s 752 mmHg 97%
08:00 -2°C° 0.4 mm 6 m/s 752 mmHg 98%
09:00 -2°C° 0.4 mm 6 m/s 753 mmHg 98%
10:00 -1°C° 0.4 mm 6 m/s 753 mmHg 98%
11:00 -1°C° 0.3 mm 6 m/s 753 mmHg 98%
12:00 -1°C° 0.3 mm 6 m/s 753 mmHg 98%
13:00 +1°C° 0.3 mm 6 m/s 754 mmHg 98%
14:00 +1°C° 0.2 mm 6 m/s 754 mmHg 97%
15:00 +1°C° 0.2 mm 6 m/s 754 mmHg 96%
16:00 +2°C° 0.2 mm 6 m/s 754 mmHg 95%
17:00 +2°C° 0.3 mm 6 m/s 755 mmHg 94%
18:00 +2°C° 0.3 mm 6 m/s 755 mmHg 94%
19:00 +3°C° 0.3 mm 6 m/s 756 mmHg 93%
20:00 +3°C° 0.2 mm 6 m/s 756 mmHg 91%
21:00 +2°C° 0.2 mm 6 m/s 756 mmHg 88%
22:00 +2°C° 0.2 mm 6 m/s 757 mmHg 86%
23:00 +2°C° 0 mm 5 m/s 757 mmHg 86%

16 Aprilie, Vineri

Timp Temperatura Precipitaţii Vânt Presiune Umiditate
00:00 +2°C° 0 mm 5 m/s 757 mmHg 85%
01:00 +2°C° 0 mm 5 m/s 757 mmHg 85%
02:00 +1°C° 0 mm 5 m/s 758 mmHg 85%
03:00 0°C° 0 mm 5 m/s 758 mmHg 86%
04:00 0°C° 0 mm 5 m/s 758 mmHg 87%
05:00 0°C° 0 mm 5 m/s 759 mmHg 85%
06:00 +1°C° 0 mm 5 m/s 760 mmHg 83%
07:00 +1°C° 0 mm 5 m/s 760 mmHg 81%
08:00 +3°C° 0 mm 5 m/s 760 mmHg 74%
09:00 +6°C° 0 mm 5 m/s 761 mmHg 68%
10:00 +8°C° 0 mm 6 m/s 761 mmHg 61%
11:00 +9°C° 0 mm 6 m/s 761 mmHg 57%
12:00 +9°C° 0 mm 6 m/s 761 mmHg 54%
13:00 +10°C° 0 mm 6 m/s 761 mmHg 50%
14:00 +10°C° 0 mm 5 m/s 761 mmHg 50%
15:00 +10°C° 0 mm 5 m/s 761 mmHg 50%
16:00 +10°C° 0 mm 5 m/s 761 mmHg 50%
17:00 +8°C° 0 mm 5 m/s 761 mmHg 56%
18:00 +7°C° 0 mm 4 m/s 761 mmHg 61%
19:00 +5°C° 0 mm 3 m/s 762 mmHg 67%
20:00 +4°C° 0 mm 3 m/s 762 mmHg 68%
21:00 +3°C° 0 mm 3 m/s 762 mmHg 70%
22:00 +2°C° 0 mm 3 m/s 762 mmHg 71%
23:00 +2°C° 0 mm 3 m/s 763 mmHg 73%
Arată mai mult

Formular de consimțământ

Meteoprog și furnizorii noștri de servicii pot stoca și accesa date personale, precum cookies, identificatori de dispozitiv sau alte tehnologii similare pe dispozitivul dumneavoastră și procesa astfel de date pentru a personaliza conținutul și reclamele, dar și pentru a oferi caracteristici de social media și pentru a analiza traficul.

  • Stocarea și/sau accesarea informațiilor pe dispozitivul dumneavoastră

    Cookies, identificatori de dispozitiv sau alte informații pot fi stocate sau accesate pe dispozitiv în scopurile indicate mai sus.

  • Reclame și conținut personalizat, evaluarea reclamelor și a conținutului, informații despre audiențe și dezvoltarea produselor

    Reclamele și conținutul pot fi personalizate pe baza unui profil. Pot fi adăugate date suplimentare pentru a personaliza mai bine reclamele și conținutul. Performanța reclamelor și conținutului poate fi măsurată. Pot fi obținute informații despre utilizatorii care au văzut reclamele și conținutul. Aceste date pot fi utilizate pentru a dezvolta sau îmbunătăți experiența utilizatorilor, sistemele și software-ul.

Dând clic pe ‘Sunt de acord’, permiteți utilizarea cookie-urilor menționate, a identificatorilor de dispozitiv, balizelor web sau altor tehnologii similare. Setările pot fi modificate din browser-ul dispozitivului dumneavoastră.

În anumite scopuri, interesele legitime pot prima asupra consimțământului. Puteți citi mai multe informații în acest sens în Politica privind Confidențialitatea Datelor și Cookie.